TimeCDT,TemperatureF,Dew PointF,Humidity,Sea Level PressureIn,VisibilityMPH,Wind Direction,Wind SpeedMPH,Gust SpeedMPH,PrecipitationIn,Events,Conditions,WindDirDegrees,DateUTC
12:15 AM,77.4,72.9,86,29.97,10.0,SSW,5.8,-,N/A,,Clear,200,2013-06-26 05:15:00
12:35 AM,76.6,73.0,89,29.97,7.0,South,4.6,-,N/A,,Clear,170,2013-06-26 05:35:00
12:55 AM,77.0,73.4,89,29.97,7.0,South,5.8,-,N/A,,Clear,180,2013-06-26 05:55:00
1:15 AM,77.0,73.6,89,29.97,10.0,South,5.8,-,N/A,,Clear,180,2013-06-26 06:15:00
1:35 AM,77.0,73.6,89,29.97,10.0,SSW,4.6,-,N/A,,Clear,200,2013-06-26 06:35:00
2:15 AM,76.5,73.8,91,29.97,10.0,South,3.5,-,N/A,,Clear,190,2013-06-26 07:15:00
2:35 AM,76.1,73.8,92,29.97,10.0,South,3.5,-,N/A,,Clear,180,2013-06-26 07:35:00
2:55 AM,74.8,73.4,95,29.97,10.0,Calm,Calm,-,N/A,,Clear,0,2013-06-26 07:55:00
3:15 AM,74.3,73.0,96,29.97,10.0,Calm,Calm,-,N/A,,Clear,0,2013-06-26 08:15:00
3:35 AM,73.9,72.9,96,29.97,10.0,Calm,Calm,-,N/A,,Clear,0,2013-06-26 08:35:00
3:55 AM,73.4,72.5,97,29.97,7.0,Calm,Calm,-,N/A,,Clear,0,2013-06-26 08:55:00
4:15 AM,73.0,72.5,98,29.97,7.0,Calm,Calm,-,N/A,,Clear,0,2013-06-26 09:15:00
4:35 AM,73.4,72.7,98,29.97,7.0,Calm,Calm,-,N/A,,Clear,0,2013-06-26 09:35:00
4:55 AM,72.7,72.3,99,29.97,7.0,Calm,Calm,-,N/A,,Clear,0,2013-06-26 09:55:00
5:15 AM,72.9,72.5,99,29.97,7.0,Calm,Calm,-,N/A,,Clear,0,2013-06-26 10:15:00
5:35 AM,72.9,72.5,99,29.98,7.0,Calm,Calm,-,N/A,,Clear,0,2013-06-26 10:35:00
5:55 AM,72.5,72.1,99,29.98,7.0,Calm,Calm,-,N/A,,Clear,0,2013-06-26 10:55:00
6:15 AM,72.5,72.1,99,29.99,5.0,Calm,Calm,-,N/A,,Clear,0,2013-06-26 11:15:00
6:35 AM,72.9,72.7,99,30.00,5.0,Calm,Calm,-,N/A,,Clear,0,2013-06-26 11:35:00
6:55 AM,73.4,73.4,100,30.01,5.0,Calm,Calm,-,N/A,,Clear,0,2013-06-26 11:55:00
7:15 AM,74.8,73.9,97,30.01,5.0,Calm,Calm,-,N/A,,Clear,0,2013-06-26 12:15:00
7:35 AM,75.2,74.1,96,30.02,7.0,Calm,Calm,-,N/A,,Clear,0,2013-06-26 12:35:00
7:55 AM,76.1,74.7,95,30.03,7.0,Calm,Calm,-,N/A,,Clear,0,2013-06-26 12:55:00
8:15 AM,77.0,74.8,93,30.03,7.0,Calm,Calm,-,N/A,,Clear,0,2013-06-26 13:15:00
8:35 AM,77.4,74.8,92,30.04,7.0,Calm,Calm,-,N/A,,Clear,0,2013-06-26 13:35:00
8:55 AM,80.6,75.6,85,30.04,10.0,Calm,Calm,-,N/A,,Clear,0,2013-06-26 13:55:00
9:15 AM,81.9,76.3,83,30.05,10.0,West,4.6,-,N/A,,Scattered Clouds,260,2013-06-26 14:15:00
9:55 AM,84.0,75.4,75,30.05,10.0,SW,6.9,-,N/A,,Mostly Cloudy,230,2013-06-26 14:55:00
10:15 AM,84.0,74.8,74,30.05,10.0,WSW,8.1,-,N/A,,Scattered Clouds,240,2013-06-26 15:15:00
10:35 AM,86.5,73.6,65,30.05,10.0,SW,11.5,-,N/A,,Clear,220,2013-06-26 15:35:00
10:55 AM,87.6,73.2,62,30.04,10.0,WSW,10.4,-,N/A,,Scattered Clouds,250,2013-06-26 15:55:00
11:15 AM,87.8,72.7,61,30.04,10.0,SSW,9.2,16.1,N/A,,Scattered Clouds,210,2013-06-26 16:15:00
11:35 AM,88.2,73.0,61,30.04,10.0,SSW,10.4,-,N/A,,Scattered Clouds,210,2013-06-26 16:35:00
11:55 AM,88.3,73.2,61,30.04,10.0,WSW,9.2,-,N/A,,Scattered Clouds,240,2013-06-26 16:55:00
12:15 PM,89.6,73.4,59,30.03,10.0,SW,9.2,-,N/A,,Clear,220,2013-06-26 17:15:00
12:35 PM,89.8,73.2,58,30.03,10.0,WSW,8.1,-,N/A,,Clear,240,2013-06-26 17:35:00
12:55 PM,90.9,73.6,57,30.02,10.0,WSW,8.1,-,N/A,,Clear,250,2013-06-26 17:55:00
1:15 PM,91.0,72.9,55,30.01,10.0,SSW,6.9,-,N/A,,Clear,210,2013-06-26 18:15:00
1:35 PM,91.6,73.9,56,30.01,10.0,SW,6.9,-,N/A,,Scattered Clouds,230,2013-06-26 18:35:00
1:55 PM,92.1,73.6,55,30.00,10.0,SW,8.1,-,N/A,,Scattered Clouds,230,2013-06-26 18:55:00
2:15 PM,92.3,72.3,52,29.99,7.0,WSW,6.9,-,N/A,,Clear,240,2013-06-26 19:15:00
2:35 PM,93.2,72.7,51,29.98,10.0,West,5.8,-,N/A,,Clear,270,2013-06-26 19:35:00
2:55 PM,93.9,71.8,48,29.98,10.0,SW,3.5,-,N/A,,Scattered Clouds,230,2013-06-26 19:55:00
3:15 PM,94.1,72.5,49,29.97,10.0,SSW,5.8,-,N/A,,Scattered Clouds,210,2013-06-26 20:15:00
3:35 PM,93.4,72.7,51,29.96,10.0,South,5.8,-,N/A,,Scattered Clouds,170,2013-06-26 20:35:00
3:55 PM,93.7,73.0,51,29.96,10.0,SW,5.8,-,N/A,,Scattered Clouds,230,2013-06-26 20:55:00
4:15 PM,93.7,71.8,49,29.95,10.0,SW,3.5,-,N/A,,Scattered Clouds,220,2013-06-26 21:15:00
4:35 PM,93.0,72.5,51,29.95,10.0,South,8.1,-,N/A,,Scattered Clouds,170,2013-06-26 21:35:00
4:55 PM,95.0,73.0,49,29.95,10.0,South,8.1,-,N/A,,Mostly Cloudy,190,2013-06-26 21:55:00
5:15 PM,91.9,72.1,52,29.94,10.0,SSW,5.8,-,N/A,,Scattered Clouds,200,2013-06-26 22:15:00
5:35 PM,94.1,72.3,49,29.94,10.0,SSW,6.9,-,N/A,,Scattered Clouds,210,2013-06-26 22:35:00
5:55 PM,93.2,72.1,50,29.93,10.0,SSW,5.8,-,N/A,,Clear,200,2013-06-26 22:55:00
6:15 PM,93.4,72.0,50,29.93,10.0,SSW,6.9,-,N/A,,Clear,210,2013-06-26 23:15:00
6:35 PM,93.2,72.3,50,29.93,10.0,SSW,4.6,-,N/A,,Clear,210,2013-06-26 23:35:00
6:55 PM,92.8,72.5,51,29.92,10.0,SSW,3.5,-,N/A,,Clear,210,2013-06-26 23:55:00
7:15 PM,91.8,73.0,54,29.93,10.0,SSW,5.8,-,N/A,,Clear,210,2013-06-27 00:15:00
7:35 PM,90.3,74.1,59,29.93,10.0,Calm,Calm,-,N/A,,Clear,0,2013-06-27 00:35:00
7:55 PM,88.0,75.0,65,29.92,10.0,Calm,Calm,-,N/A,,Clear,0,2013-06-27 00:55:00
8:15 PM,86.0,75.4,70,29.93,10.0,Calm,Calm,-,N/A,,Clear,0,2013-06-27 01:15:00
8:35 PM,83.7,75.6,76,29.93,10.0,Calm,Calm,-,N/A,,Clear,0,2013-06-27 01:35:00
8:55 PM,82.2,75.4,80,29.93,10.0,Calm,Calm,-,N/A,,Clear,0,2013-06-27 01:55:00
9:15 PM,82.0,75.2,80,29.93,10.0,Calm,Calm,-,N/A,,Clear,0,2013-06-27 02:15:00
9:35 PM,81.1,74.8,81,29.93,10.0,Calm,Calm,-,N/A,,Clear,0,2013-06-27 02:35:00
9:55 PM,81.5,74.3,79,29.94,10.0,Calm,Calm,-,N/A,,Clear,0,2013-06-27 02:55:00
10:15 PM,81.5,74.3,79,29.95,10.0,Calm,Calm,-,N/A,,Clear,0,2013-06-27 03:15:00
10:35 PM,81.0,74.3,80,29.95,10.0,Calm,Calm,-,N/A,,Clear,0,2013-06-27 03:35:00
10:55 PM,80.6,74.3,81,29.96,7.0,SSW,3.5,-,N/A,,Clear,200,2013-06-27 03:55:00
11:15 PM,80.2,74.5,83,29.96,10.0,South,3.5,-,N/A,,Clear,190,2013-06-27 04:15:00
11:35 PM,79.9,74.3,83,29.97,10.0,SSW,3.5,-,N/A,,Clear,200,2013-06-27 04:35:00
11:55 PM,79.5,74.3,84,29.97,10.0,SW,4.6,-,N/A,,Clear,220,2013-06-27 04:55:00